Regional Weather Roundup
Issued by NWS

Home | Current Version | Previous Version | Graphics & Text | Print | Product List | Glossary On
Versions: 1 2 3 4 5 6 7 8 9 10 11 12 13 14 15 16 17 18 19 20 21 22 23 24 25 26 27 28 29 30 31 32 33 34 35 36 37 38 39 40 41 42 43 44 45 46 47 48 49 50
000
ASUS43 KLMK 162202
RWRKY
KENTUCKY REGIONAL WEATHER ROUNDUP
NATIONAL WEATHER SERVICE LOUISVILLE KY
600 PM EDT WED APR 16 2014

NOTE "FAIR" INDICATES FEW OR NO CLOUDS BELOW 12,000 FEET
WITH NO SIGNIFICANT WEATHER AND/OR OBSTRUCTIONS TO VISIBILITY.

KYZ001>023-026-027-061>063-070>075-162300-
WESTERN AND SOUTH CENTRAL KENTUCKY

CITY           SKY/WX    TMP DP  RH WIND       PRES   REMARKS
PADUCAH        PTSUNNY   59  26  28 SE12      30.14F
HENDERSON      MOSUNNY   54  27  35 SE12      30.17F
OWENSBORO      MOSUNNY   55  26  32 E15       30.19F
HOPKINSVILLE   SUNNY     55  27  33 E13       30.17F
BOWLING GREEN  MOSUNNY   57  24  28 E10       30.21F
GLASGOW        NOT AVBL
$$

KYZ024-025-028>034-038-045-046-053-162300-
NORTH CENTRAL KENTUCKY

CITY           SKY/WX    TMP DP  RH WIND       PRES   REMARKS
LOUISVILLE/SDF PTSUNNY   54  22  28 E16       30.23F
LOUISVILLE/LOU MOSUNNY   56  22  26 SE8       30.24F
FORT KNOX      MOSUNNY   54  22  28 E9        30.21F
$$

KYZ035>037-039>044-047>052-055>060-089>105-162300-
NORTHEAST KENTUCKY

CITY           SKY/WX    TMP DP  RH WIND       PRES   REMARKS
LEXINGTON      SUNNY     54  21  27 E13       30.25F
COVINGTON      MOSUNNY   50  21  32 SE9       30.27F
FRANKFORT      SUNNY     52  24  33 E14       30.25F
$$

KYZ054-064>069-076>088-106>120-162300-
SOUTHEAST KENTUCKY

CITY           SKY/WX    TMP DP  RH WIND       PRES   REMARKS
JACKSON        SUNNY     53  18  25 VRB3      30.26F
LONDON         SUNNY     57  20  23 NE8       30.23F
SOMERSET       NOT AVBL
MIDDLESBORO    NOT AVBL
MONTICELLO     CLEAR     58  24  27 SE7       30.22F
$$




USA.gov is the U.S. government's official web portal to all federal, state and local government web resources and services.